Location: Canazei
(46.4667°N, 11.7667°E)
Time: 03:36:59
(UTC+00:00)

Cosmos 1908 Rocket - Pass Details

Date: 21 April 2021
Orbit: 607 x 631 km, 82.5° (Epoch: 10 May)

Event Time Altitude Azimuth Distance (km) Brightness Sun altitude
Rises 01:18:42 0° 350° (N) 2,913 7.7 -25.1°
Reaches altitude 10° 01:20:56 10° 349° (N) 2,005 6.7 -24.9°
Enters shadow 01:25:07 77° 318° (NW) 649 3.5 -24.4°
